�������l�o���
Date,Time,MP-1(��Sv/h),MP-2(��Sv/h),MP-3(��Sv/h),MP-4(��Sv/h),MP-5(��Sv/h),MP-6(��Sv/h),MP-7(��Sv/h),MP-8(��Sv/h),����,����(m/s),���J
2015/01/16,00:00,1.883,3.293,3.548,3.318,3.297,1.075,1.803,2.128,�k�k��,9.9,��
2015/01/16,00:10,1.887,3.303,3.552,3.318,3.312,1.078,1.803,2.132,�k�k��,9.9,��
2015/01/16,00:20,1.888,3.313,3.567,3.327,3.323,1.080,1.805,2.132,�k�k��,11.3,��
2015/01/16,00:30,1.890,3.322,3.575,3.335,3.328,1.083,1.808,2.133,�k�k��,10.8,��
2015/01/16,00:40,1.892,3.330,3.583,3.337,3.333,1.083,1.810,2.135,�k�k��,10.2,��
2015/01/16,00:50,1.893,3.333,3.587,3.340,3.338,1.082,1.808,2.135,�k�k��,9.4,��
2015/01/16,01:00,1.892,3.340,3.600,3.342,3.345,1.087,1.813,2.140,�k�k��,8.2,��
2015/01/16,01:10,1.895,3.347,3.603,3.342,3.350,1.087,1.813,2.140,�k�k��,8.9,��
2015/01/16,01:20,1.895,3.357,3.605,3.347,3.355,1.088,1.812,2.140,�k�k��,7.9,��
2015/01/16,01:30,1.900,3.363,3.615,3.353,3.358,1.088,1.815,2.143,�k�k��,7.8,��
2015/01/16,01:40,1.902,3.365,3.620,3.355,3.362,1.088,1.813,2.145,�k�k��,8.2,��
2015/01/16,01:50,1.902,3.365,3.628,3.357,3.365,1.088,1.815,2.143,�k�k��,8.6,��
2015/01/16,02:00,1.903,3.370,3.628,3.360,3.370,1.090,1.818,2.145,�k�k��,9.3,��
2015/01/16,02:10,1.905,3.373,3.635,3.363,3.375,1.093,1.817,2.145,�k�k��,10.7,��
2015/01/16,02:20,1.903,3.377,3.638,3.365,3.377,1.092,1.818,2.147,�k�k��,9.4,��
2015/01/16,02:30,1.903,3.378,3.640,3.363,3.380,1.093,1.820,2.147,�k�k��,10.5,��
2015/01/16,02:40,1.907,3.378,3.647,3.367,3.385,1.093,1.822,2.147,�k�k��,8.6,��
2015/01/16,02:50,1.905,3.387,3.648,3.368,3.390,1.095,1.822,2.147,�k�k��,9.9,��
2015/01/16,03:00,1.905,3.387,3.650,3.372,3.392,1.097,1.822,2.148,�k�k��,9.1,��
2015/01/16,03:10,1.905,3.385,3.655,3.375,3.393,1.097,1.825,2.150,�k�k��,9.1,��
2015/01/16,03:20,1.910,3.390,3.655,3.377,3.397,1.093,1.825,2.150,�k�k��,8.5,��
2015/01/16,03:30,1.908,3.390,3.658,3.378,3.405,1.093,1.825,2.148,�k�k��,7.7,��
2015/01/16,03:40,1.910,3.393,3.658,3.380,3.405,1.095,1.825,2.150,�k�k��,8.9,��
2015/01/16,03:50,1.903,3.398,3.663,3.377,3.407,1.095,1.827,2.153,�k�k��,7.7,��
2015/01/16,04:00,1.903,3.397,3.667,3.377,3.407,1.097,1.825,2.150,�k�k��,8.0,��
2015/01/16,04:10,1.907,3.398,3.665,3.380,3.407,1.097,1.823,2.148,�k�k��,7.8,��
2015/01/16,04:20,1.908,3.400,3.663,3.380,3.408,1.093,1.825,2.150,�k�k��,7.4,��
2015/01/16,04:30,1.907,3.400,3.663,3.380,3.408,1.097,1.827,2.153,�k,6.3,��
2015/01/16,04:40,1.907,3.400,3.668,3.383,3.415,1.095,1.828,2.152,�k,6.1,��
2015/01/16,04:50,1.910,3.402,3.668,3.380,3.415,1.098,1.830,2.150,�k,6.3,��
2015/01/16,05:00,1.910,3.403,3.668,3.380,3.417,1.097,1.827,2.152,�k,6.8,��
2015/01/16,05:10,1.908,3.403,3.667,3.383,3.423,1.098,1.828,2.153,�k,7.1,��
2015/01/16,05:20,1.910,3.403,3.672,3.382,3.420,1.097,1.830,2.152,�k,7.5,��
2015/01/16,05:30,1.910,3.408,3.668,3.385,3.422,1.097,1.830,2.153,�k�k��,6.6,��
2015/01/16,05:40,1.908,3.407,3.668,3.383,3.427,1.098,1.830,2.152,�k�k��,7.7,��
2015/01/16,05:50,1.907,3.407,3.675,3.383,3.422,1.098,1.832,2.153,�k�k��,8.0,��
2015/01/16,06:00,1.910,3.410,3.677,3.387,3.423,1.095,1.830,2.155,�k�k��,8.6,��
2015/01/16,06:10,1.917,3.408,3.677,3.387,3.425,1.097,1.830,2.153,�k�k��,8.9,��
2015/01/16,06:20,1.917,3.412,3.677,3.385,3.427,1.095,1.832,2.152,�k�k��,7.5,��
2015/01/16,06:30,1.913,3.413,3.682,3.385,3.430,1.095,1.828,2.155,�k,7.5,��
2015/01/16,06:40,1.913,3.408,3.682,3.383,3.428,1.097,1.828,2.157,�k,7.7,��
2015/01/16,06:50,1.913,3.412,3.682,3.387,3.427,1.097,1.830,2.155,�k,6.1,��
2015/01/16,07:00,1.917,3.412,3.683,3.387,3.428,1.097,1.832,2.155,�k�k��,7.1,��
2015/01/16,07:10,1.918,3.410,3.680,3.385,3.430,1.095,1.832,2.157,�k�k��,7.1,��
2015/01/16,07:20,1.920,3.412,3.680,3.385,3.430,1.090,1.832,2.158,�k�k��,8.2,��
2015/01/16,07:30,1.920,3.413,3.678,3.385,3.430,1.088,1.833,2.157,�k��,9.3,��
2015/01/16,07:40,1.920,3.417,3.682,3.392,3.432,1.087,1.832,2.160,�k��,9.1,��
2015/01/16,07:50,1.920,3.415,3.688,3.395,3.433,1.085,1.832,2.157,�k��,9.1,��
2015/01/16,08:00,1.918,3.422,3.688,3.392,3.438,1.083,1.835,2.155,�k��,8.2,��
2015/01/16,08:10,1.922,3.420,3.692,3.397,3.440,1.085,1.832,2.155,�k�k��,8.0,��
2015/01/16,08:20,1.922,3.422,3.692,3.395,3.447,1.083,1.833,2.158,�k��,6.8,��
2015/01/16,08:30,1.922,3.422,3.693,3.397,3.443,1.082,1.837,2.163,�k�k��,6.5,��
2015/01/16,08:40,1.925,3.423,3.695,3.397,3.442,1.085,1.832,2.158,�k�k��,7.2,��
2015/01/16,08:50,1.922,3.423,3.700,3.402,3.447,1.083,1.833,2.158,�k�k��,4.8,��
2015/01/16,09:00,1.923,3.428,3.700,3.400,3.448,1.083,1.833,2.160,�k�k��,6.3,��
2015/01/16,09:10,1.925,3.428,3.703,3.403,3.450,1.085,1.832,2.157,�k�k��,6.0,��
2015/01/16,09:20,1.927,3.432,3.707,3.402,3.452,1.080,1.833,2.158,�k�k��,5.8,��
2015/01/16,09:30,1.927,3.435,3.707,3.405,3.455,1.083,1.835,2.160,�k��,7.1,��
2015/01/16,09:40,1.927,3.435,3.705,3.405,3.457,1.082,1.837,2.162,�k��,6.3,��
2015/01/16,09:50,1.923,3.437,3.710,3.407,3.462,1.087,1.837,2.160,�k�k��,5.6,��
2015/01/16,10:00,1.927,3.442,3.707,3.410,3.468,1.085,1.835,2.160,�k��,5.7,��
2015/01/16,10:10,1.928,3.447,3.710,3.410,3.473,1.087,1.838,2.162,���k��,4.9,��
2015/01/16,10:20,1.932,3.448,3.713,3.410,3.478,1.088,1.840,2.163,���k��,5.7,��
2015/01/16,10:30,1.932,3.453,3.722,3.415,3.482,1.088,1.837,2.162,�k��,4.0,��
2015/01/16,10:40,1.928,3.458,3.728,3.415,3.488,1.090,1.840,2.165,���k��,6.6,��
2015/01/16,10:50,1.930,3.462,3.728,3.417,3.492,1.090,1.838,2.165,���k��,5.0,��
2015/01/16,11:00,1.928,3.463,3.732,3.417,3.502,1.092,1.842,2.165,�k��,4.4,��
2015/01/16,11:10,1.923,3.467,3.737,3.417,3.503,1.092,1.842,2.165,�k��,4.9,��
2015/01/16,11:20,1.927,3.470,3.738,3.418,3.508,1.093,1.842,2.167,���k��,2.8,��
2015/01/16,11:30,1.927,3.473,3.742,3.425,3.515,1.090,1.842,2.168,�k��,4.1,��
2015/01/16,11:40,1.923,3.473,3.745,3.423,3.522,1.093,1.842,2.165,�k��,2.8,��
2015/01/16,11:50,1.928,3.473,3.747,3.418,3.527,1.093,1.842,2.170,�k��,2.5,��
2015/01/16,12:00,1.930,3.480,3.750,3.422,3.528,1.092,1.843,2.168,�k�k��,1.1,��
2015/01/16,12:10,1.930,3.485,3.753,3.423,3.533,1.092,1.842,2.167,���k��,2.6,��
2015/01/16,12:20,1.933,3.487,3.757,3.423,3.538,1.093,1.845,2.168,���k��,2.3,��
2015/01/16,12:30,1.933,3.488,3.763,3.430,3.543,1.093,1.845,2.168,��,3.3,��
2015/01/16,12:40,1.932,3.497,3.765,3.430,3.545,1.095,1.845,2.167,���k��,3.8,��
2015/01/16,12:50,1.933,3.493,3.767,3.430,3.545,1.095,1.847,2.168,���쐼,3.3,��
2015/01/16,13:00,1.933,3.495,3.772,3.432,3.550,1.093,1.847,2.165,��,3.6,��
2015/01/16,13:10,1.933,3.498,3.772,3.432,3.555,1.097,1.847,2.167,�쐼,3.7,��
2015/01/16,13:20,1.933,3.502,3.773,3.438,3.557,1.095,1.848,2.168,���쐼,4.3,��
2015/01/16,13:30,1.933,3.500,3.782,3.433,3.560,1.095,1.847,2.168,���쐼,4.6,��
2015/01/16,13:40,1.933,3.495,3.782,3.433,3.565,1.097,1.847,2.168,���쐼,4.3,��
2015/01/16,13:50,1.937,3.502,3.780,3.435,3.565,1.098,1.848,2.170,��,4.0,��
2015/01/16,14:00,1.937,3.502,3.785,3.438,3.567,1.098,1.847,2.170,��,4.4,��
2015/01/16,14:10,1.935,3.503,3.785,3.440,3.570,1.097,1.845,2.168,��,4.4,��
2015/01/16,14:20,1.937,3.512,3.785,3.437,3.573,1.095,1.847,2.167,��,5.2,��
2015/01/16,14:30,1.935,3.507,3.785,3.438,3.573,1.098,1.847,2.170,��,3.9,��
2015/01/16,14:40,1.937,3.507,3.787,3.440,3.575,1.098,1.845,2.170,��,3.5,��
2015/01/16,14:50,1.937,3.508,3.792,3.443,3.577,1.102,1.848,2.170,���k��,4.2,��
2015/01/16,15:00,1.935,3.508,3.792,3.445,3.582,1.100,1.848,2.170,��,3.8,��
2015/01/16,15:10,1.937,3.507,3.793,3.445,3.583,1.103,1.847,2.173,��,4.3,��
2015/01/16,15:20,1.935,3.510,3.793,3.445,3.583,1.103,1.847,2.173,��,3.8,��
2015/01/16,15:30,1.935,3.508,3.795,3.443,3.587,1.103,1.848,2.173,��,1.7,��
2015/01/16,15:40,1.937,3.512,3.792,3.440,3.590,1.105,1.848,2.172,���쐼,1.3,��
2015/01/16,15:50,1.938,3.512,3.793,3.442,3.590,1.105,1.848,2.172,���쐼,1.4,��
2015/01/16,16:00,1.935,3.510,3.797,3.440,3.590,1.107,1.845,2.172,��쐼,1.3,��
2015/01/16,16:10,1.937,3.508,3.797,3.440,3.597,1.108,1.847,2.172,�쐼,1.3,��
2015/01/16,16:20,1.938,3.510,3.795,3.440,3.592,1.108,1.847,2.173,�쐼,1.9,��
2015/01/16,16:30,1.942,3.510,3.793,3.438,3.595,1.108,1.848,2.172,���쐼,2.5,��
2015/01/16,16:40,1.938,3.512,3.792,3.443,3.593,1.108,1.848,2.172,���쐼,2.8,��
2015/01/16,16:50,1.937,3.513,3.795,3.442,3.592,1.108,1.848,2.172,��,2.4,��
2015/01/16,17:00,1.935,3.512,3.793,3.442,3.597,1.107,1.845,2.173,��,2.0,��
2015/01/16,17:10,1.938,3.508,3.792,3.440,3.592,1.108,1.847,2.173,���k��,1.0,��
2015/01/16,17:20,1.937,3.512,3.790,3.440,3.588,1.107,1.847,2.170,���k��,3.1,��
2015/01/16,17:30,1.940,3.512,3.795,3.440,3.592,1.110,1.847,2.170,�k��,3.5,��
2015/01/16,17:40,1.937,3.513,3.797,3.443,3.593,1.107,1.848,2.173,�k��,4.4,��
2015/01/16,17:50,1.935,3.515,3.802,3.442,3.598,1.108,1.850,2.173,�k��,2.8,��
2015/01/16,18:00,1.937,3.515,3.795,3.442,3.598,1.108,1.847,2.175,�k��,2.2,��
2015/01/16,18:10,1.937,3.513,3.792,3.440,3.597,1.108,1.847,2.170,�k��,1.3,��
2015/01/16,18:20,1.938,3.515,3.792,3.433,3.598,1.110,1.847,2.172,���k��,1.3,��
2015/01/16,18:30,1.938,3.515,3.790,3.438,3.598,1.112,1.848,2.175,���k��,1.0,��
2015/01/16,18:40,1.937,3.513,3.793,3.440,3.597,1.112,1.847,2.172,��,1.5,��
2015/01/16,18:50,1.940,3.513,3.792,3.438,3.593,1.113,1.845,2.172,��,1.0,��
2015/01/16,19:00,1.938,3.515,3.797,3.442,3.593,1.112,1.847,2.170,���쐼,1.7,��
2015/01/16,19:10,1.938,3.513,3.795,3.440,3.597,1.110,1.847,2.172,���쐼,2.1,��
2015/01/16,19:20,1.937,3.512,3.800,3.437,3.603,1.113,1.847,2.172,���쐼,2.0,��
2015/01/16,19:30,1.938,3.515,3.795,3.438,3.607,1.110,1.845,2.173,��,1.6,��
2015/01/16,19:40,1.940,3.510,3.795,3.437,3.603,1.113,1.847,2.170,��,1.1,��
2015/01/16,19:50,1.938,3.513,3.793,3.442,3.602,1.113,1.843,2.175,���쐼,0.7,��
2015/01/16,20:00,1.942,3.515,3.797,3.443,3.602,1.115,1.847,2.170,-,CALM,��
2015/01/16,20:10,1.940,3.515,3.793,3.445,3.602,1.112,1.847,2.170,�쐼,0.6,��
2015/01/16,20:20,1.940,3.517,3.797,3.442,3.603,1.113,1.850,2.175,��,1.0,��
2015/01/16,20:30,1.935,3.512,3.797,3.442,3.607,1.117,1.848,2.172,��,1.4,��
2015/01/16,20:40,1.937,3.515,3.802,3.443,3.607,1.113,1.845,2.170,��,0.7,��
2015/01/16,20:50,1.937,3.515,3.802,3.442,3.603,1.117,1.848,2.173,-,CALM,��
2015/01/16,21:00,1.938,3.515,3.805,3.440,3.603,1.115,1.845,2.172,���쐼,0.8,��
2015/01/16,21:10,1.938,3.515,3.800,3.440,3.603,1.117,1.847,2.172,-,CALM,��
2015/01/16,21:20,1.935,3.518,3.802,3.443,3.603,1.115,1.848,2.173,���쐼,1.1,��
2015/01/16,21:30,1.938,3.518,3.802,3.437,3.603,1.115,1.848,2.172,�쐼,1.5,��
2015/01/16,21:40,1.940,3.518,3.802,3.442,3.603,1.117,1.847,2.173,���쐼,1.7,��
2015/01/16,21:50,1.942,3.520,3.803,3.440,3.605,1.117,1.843,2.175,�쐼,1.8,��
2015/01/16,22:00,1.938,3.517,3.802,3.442,3.607,1.113,1.847,2.177,���쐼,1.9,��
2015/01/16,22:10,1.938,3.517,3.803,3.445,3.617,1.113,1.847,2.175,�쐼,1.9,��
2015/01/16,22:20,1.938,3.518,3.798,3.447,3.617,1.113,1.847,2.173,���쐼,2.1,��
2015/01/16,22:30,1.942,3.522,3.803,3.448,3.615,1.113,1.848,2.172,���쐼,1.8,��
2015/01/16,22:40,1.942,3.518,3.805,3.447,3.608,1.117,1.848,2.172,���쐼,2.4,��
2015/01/16,22:50,1.942,3.520,3.807,3.448,3.608,1.115,1.847,2.172,�쐼,2.0,��
2015/01/16,23:00,1.943,3.520,3.807,3.447,3.610,1.117,1.850,2.173,�쐼,1.8,��
2015/01/16,23:10,1.943,3.518,3.808,3.445,3.617,1.118,1.850,2.173,��쐼,1.8,��
2015/01/16,23:20,1.940,3.515,3.805,3.443,3.613,1.120,1.850,2.172,�쐼,1.4,��
2015/01/16,23:30,1.942,3.522,3.807,3.447,3.615,1.118,1.848,2.170,�쐼,1.8,��
2015/01/16,23:40,1.942,3.525,3.807,3.450,3.613,1.118,1.848,2.175,���쐼,1.1,�L
2015/01/16,23:50,1.943,3.520,3.803,3.445,3.613,1.118,1.848,2.172,���쐼,1.6,�L
